Weather in Shendzhiy

Russia / Republic of Adygea     44°52′57″N   39°03′54″E
temp.,
°C
wind,
m/s
gust,
m/s
humid.,
%
clouds,
%
prec.,
mm/h
press.,
hPa
HPBL,
m
11 may, tue
tue1100:00+10sw71355100 0.0 1018807
03:00+11sw81458100 0.0 10161043
06:00+11sw91566100 0.1 10141633
09:00+9sw71589100 2.6 10141432
12:00+9sw91790100 5.0 10131558
15:00+9ssw81789100 12.1 10141462
18:00+9ssw81689100 4.3 10141298
21:00+9ssw81585100 5.0 1014866
12 may, wed
wed1200:00+9ssw71583100 0.6 1014841
03:00+10ssw6147699 0.8 1014787
06:00+9se598597 0.1 1016369
09:00+10ese488593 0.3 1016380
12:00+16ese455199 0.0 10151167
15:00+18e4453100 0.0 1014999
18:00+17ene2671100 0.0 1013257
21:00+13ne23855 0.0 101356
13 may, thu
thu1300:00+12ene22900 0.0 101228
03:00+11ne01930 0.0 101211
06:00+11ese12920 0.0 101258
09:00+17ese11712 0.0 1013317
12:00+22e34565 0.0 1012587
15:00+25e465214 0.0 1011902
18:00+23e4970100 0.0 1010541
21:00+19e4118798 0.0 1010267
14 may, fri
fri1400:00+17e37895 0.0 1009138
03:00+15ese23895 0.0 100938
06:00+15ese23842 0.0 101062
09:00+22ese23590 0.0 1010197
12:00+27e22465 0.0 1010448
15:00+29e234543 0.0 1009766
18:00+28e12638 0.0 100955
21:00+22w22750 0.0 101016
15 may, sat
sat1500:00+18w36800 0.0 1010128
03:00+16wnw3777100 0.0 1012154
06:00+16w267942 0.0 1013151
09:00+21wnw336322 0.0 1014459
12:00+25w225199 0.0 1014811
15:00+26n224699 0.0 10131019
18:00+25e236099 0.0 1013357
21:00+20e23785 0.1 101250